Dunkirk, NY

7:44 PM EST on February 19, 2018 (GMT -0500)
Chautauqua County-Dunkirk

Weather History for KDKK - May, 2013

Change the Weather History Date:

Sunday, May 26, 2013

  Actual Average Record
Temperature  
Mean Temperature 48 °F -  
Max Temperature 60 °F 69 °F 85 °F (1944)
Min Temperature 37 °F 49 °F 32 °F (1969)
Degree Days  
Heating Degree Days 16    
Moisture  
Dew Point 36 °F    
Average Humidity 62    
Maximum Humidity 89    
Minimum Humidity 33    
Precipitation  
Precipitation 0.00 in - - ()
Sea Level Pressure  
Sea Level Pressure 30.25 in    
Wind  
Wind Speed 6 mph (WSW)    
Max Wind Speed 16 mph    
Max Gust Speed 23 mph    
Visibility 10 miles    
Events      
Averages and records for this station are not official NWS values.
T = Trace of Precipitation, MM = Missing Value Source: NWS Daily Summary

Daily Weather History Graph

Daily Weather History Graph

Search for Another Location

Airport or City:

Trip Planner

Search our weather history database for the weather conditions in past years. The results will help you decide how hot, cold, wet, or windy it might be!

Date:

Astronomy

May. 26, 2013 Rise Set
Actual Time 5:45 AM EDT 8:43 PM EDT
Civil Twilight 5:12 AM EDT 9:16 PM EDT
Nautical Twilight 4:29 AM EDT 9:59 PM EDT
Astronomical Twilight 3:40 AM EDT 10:49 PM EDT
Moon 10:28 PM EDT (5/26) 7:13 AM EDT (5/26)
Length of Visible Light 16h 04m
Length of Day
14h 57m
Waning Gibbous, 97% of the Moon is Illuminated
May 26
Waning Gibbous
May 31
Last Quarter
Jun 8
New
Jun 16
First Quarter
Jun 23
Full

Hourly Weather History & Observations

Time (EDT) Temp. Windchill Dew Point Humidity Pressure Visibility Wind Dir Wind Speed Gust Speed Precip Events Conditions
12:53 AM 39.9 °F 36.7 °F 36.0 °F 86% 30.23 in 10.0 mi SW 4.6 mph - N/A   Clear
1:53 AM 41.0 °F - 36.0 °F 82% 30.23 in 10.0 mi Calm Calm - N/A   Clear
2:53 AM 39.9 °F 37.8 °F 35.1 °F 83% 30.22 in 10.0 mi SW 3.5 mph - N/A   Clear
3:53 AM 39.9 °F 36.7 °F 35.1 °F 83% 30.22 in 10.0 mi SSW 4.6 mph - N/A   Clear
4:53 AM 39.9 °F - 36.0 °F 86% 30.23 in 10.0 mi Calm Calm - N/A   Clear
5:53 AM 37.9 °F 33.5 °F 35.1 °F 89% 30.25 in 10.0 mi SSW 5.8 mph - N/A   Clear
6:53 AM 42.1 °F 38.4 °F 37.9 °F 85% 30.25 in 10.0 mi SSW 5.8 mph - N/A   Clear
7:53 AM 48.0 °F - 39.0 °F 71% 30.27 in 10.0 mi SW 6.9 mph - N/A   Clear
8:53 AM 50.0 °F - 37.9 °F 63% 30.28 in 10.0 mi NW 8.1 mph - N/A   Clear
9:53 AM 51.1 °F - 37.9 °F 61% 30.28 in 10.0 mi WNW 8.1 mph - N/A   Clear
10:53 AM 53.1 °F - 37.9 °F 57% 30.28 in 10.0 mi West 8.1 mph - N/A   Clear
11:53 AM 55.0 °F - 36.0 °F 49% 30.29 in 10.0 mi West 8.1 mph 18.4 mph N/A   Clear
12:53 PM 57.0 °F - 34.0 °F 42% 30.28 in 10.0 mi West 8.1 mph 17.3 mph N/A   Clear
1:53 PM 59.0 °F - 32.0 °F 36% 30.28 in 10.0 mi West 10.4 mph 19.6 mph N/A   Clear
2:53 PM 60.1 °F - 30.9 °F 33% 30.26 in 10.0 mi West 10.4 mph 19.6 mph N/A   Clear
3:53 PM 59.0 °F - 32.0 °F 36% 30.26 in 10.0 mi West 13.8 mph - N/A   Clear
4:53 PM 59.0 °F - 33.1 °F 38% 30.25 in 10.0 mi West 13.8 mph 23.0 mph N/A   Clear
5:53 PM 59.0 °F - 33.1 °F 38% 30.24 in 10.0 mi WSW 13.8 mph 21.9 mph N/A   Clear
6:53 PM 57.0 °F - 35.1 °F 44% 30.23 in 10.0 mi WSW 16.1 mph 21.9 mph N/A   Clear
7:53 PM 55.0 °F - 36.0 °F 49% 30.23 in 10.0 mi SW 12.7 mph - N/A   Clear
8:53 PM 53.1 °F - 36.0 °F 52% 30.22 in 10.0 mi SW 10.4 mph - N/A   Clear
9:53 PM 50.0 °F - 36.0 °F 59% 30.24 in 10.0 mi Calm Calm - N/A   Clear
10:53 PM 44.1 °F 41.5 °F 37.9 °F 79% 30.25 in 10.0 mi SSW 4.6 mph - N/A   Clear
11:53 PM 42.1 °F 40.2 °F 37.0 °F 82% 30.26 in 10.0 mi SSE 3.5 mph - N/A   Clear